sat.trackr.live / text

‹ back to catalog

STARLINK-31153

NORAD 59044 · 2024-038X

PAYLOAD ACTIVE UNKNOWN

§ Identity

Operator
Country
US
Launch date
2024-02-25
Launch site
AFETR
Launch vehicle
Mass (kg)
RCS (m²)

Purposes: comms

External: N2YO · Heavens-Above · Gunter

§ Orbital elements

Epoch: 2026-05-25T03:41:16.293120Z

Period
94.27 min
Inclination
43.0091°
Eccentricity
0.0005723
Mean motion
15.27583444 rev/d
Perigee alt
479.1 km
Apogee alt
487.0 km
Semi-major
6,861.2 km
B*
-9.0098e-5
RAAN
311.6280°
Arg perigee
259.5276°
Mean anomaly
100.4931°
Rev number
12,638

§ Raw data

STARLINK-311531 59044U 24038X   26145.15366080 -.00002744  00000+0 -90098-4 0  99942 59044  43.0091 311.6280 0005723 259.5276 100.4931 15.27583444126386

JSON: /api/v1/satellites/59044 · /tle

For live sub-satellite position, see the globe view (requires WebGL).

§ Visibility from observer

Set your observer location to see the next 7 days of passes ≥ 10°. The values pass through the URL so the page stays shareable.

No JS? Fill the form by hand. The geolocation button needs JavaScript.